• In Kazakhstan
  • List of Countries
  • For 7 days
  • Water Temperature
  • Satellite Maps
  • Weather Map
  • News
  • Weather Widgets
  • user-avatar
    Login

    Hourly Weather Saurimo

    Today, 19 November, Monday

    Time Temperature Precipitation Wind Pressure Humidity
    00:00 +20°C° 0 mm 1 mps 669 mmHg 89%
    01:00 +20°C° 0 mm 1 mps 669 mmHg 90%
    02:00 +20°C° 0 mm 1 mps 670 mmHg 89%
    03:00 +20°C° 0 mm 1 mps 670 mmHg 89%
    04:00 +20°C° 0 mm 1 mps 670 mmHg 89%
    05:00 +21°C° 0 mm 1 mps 670 mmHg 84%
    06:00 +22°C° 0 mm 1 mps 671 mmHg 80%
    07:00 +21°C° 0 mm 0 mps 671 mmHg 76%
    08:00 +25°C° 0 mm 0 mps 672 mmHg 64%
    09:00 +29°C° 0 mm 0 mps 672 mmHg 51%
    10:00 +33°C° 0 mm 0 mps 673 mmHg 39%
    11:00 +33°C° 0 mm 0 mps 672 mmHg 37%
    12:00 +34°C° 0 mm 0 mps 672 mmHg 35%
    13:00 +36°C° 0 mm 1 mps 671 mmHg 33%
    14:00 +34°C° 0 mm 1 mps 671 mmHg 38%
    15:00 +32°C° 0 mm 1 mps 670 mmHg 43%
    16:00 +30°C° 0 mm 1 mps 669 mmHg 49%
    17:00 +28°C° 0.1 mm 1 mps 669 mmHg 56%
    18:00 +27°C° 0.1 mm 1 mps 669 mmHg 64%
    19:00 +25°C° 0.1 mm 2 mps 669 mmHg 71%
    20:00 +24°C° 0.2 mm 2 mps 669 mmHg 77%
    21:00 +23°C° 0.2 mm 1 mps 670 mmHg 82%
    22:00 +22°C° 0.2 mm 1 mps 670 mmHg 87%
    23:00 +21°C° 1.1 mm 1 mps 670 mmHg 90%

    Tomorrow, 20 November, Tuesday

    Time Temperature Precipitation Wind Pressure Humidity
    00:00 +21°C° 1.1 mm 1 mps 670 mmHg 92%
    01:00 +20°C° 1.1 mm 1 mps 669 mmHg 94%
    02:00 +20°C° 0.3 mm 1 mps 669 mmHg 94%
    03:00 +18°C° 0.3 mm 0 mps 669 mmHg 95%
    04:00 +18°C° 0.3 mm 0 mps 669 mmHg 96%
    05:00 +19°C° 0 mm 0 mps 670 mmHg 92%
    06:00 +20°C° 0 mm 0 mps 670 mmHg 89%
    07:00 +21°C° 0 mm 0 mps 671 mmHg 86%
    08:00 +24°C° 0.3 mm 0 mps 672 mmHg 75%
    09:00 +28°C° 0.3 mm 1 mps 672 mmHg 64%
    10:00 +31°C° 0.3 mm 1 mps 673 mmHg 52%
    11:00 +32°C° 0.2 mm 1 mps 672 mmHg 49%
    12:00 +32°C° 0.2 mm 1 mps 671 mmHg 46%
    13:00 +33°C° 0.2 mm 1 mps 671 mmHg 43%
    14:00 +31°C° 0.5 mm 2 mps 670 mmHg 53%
    15:00 +28°C° 0.5 mm 2 mps 669 mmHg 62%
    16:00 +26°C° 0.5 mm 2 mps 668 mmHg 72%
    17:00 +25°C° 0.8 mm 2 mps 669 mmHg 78%
    18:00 +24°C° 0.8 mm 2 mps 669 mmHg 84%
    19:00 +23°C° 0.8 mm 1 mps 669 mmHg 89%
    20:00 +22°C° 0.6 mm 1 mps 670 mmHg 91%
    21:00 +22°C° 0.6 mm 1 mps 670 mmHg 93%
    22:00 +21°C° 0.6 mm 1 mps 670 mmHg 95%
    23:00 +21°C° 0.8 mm 1 mps 670 mmHg 95%

    Day after tomorrow, 21 November, Wednesday

    Time Temperature Precipitation Wind Pressure Humidity
    00:00 +21°C° 0.8 mm 1 mps 669 mmHg 95%
    01:00 +21°C° 0.8 mm 1 mps 669 mmHg 96%
    02:00 +20°C° 0.4 mm 1 mps 669 mmHg 96%
    03:00 +20°C° 0.4 mm 1 mps 669 mmHg 96%
    04:00 +20°C° 0.4 mm 1 mps 669 mmHg 96%
    05:00 +21°C° 0.1 mm 1 mps 670 mmHg 95%
    06:00 +21°C° 0.1 mm 1 mps 670 mmHg 93%
    07:00 +21°C° 0.1 mm 2 mps 671 mmHg 91%
    08:00 +24°C° 0 mm 2 mps 671 mmHg 82%
    09:00 +25°C° 0 mm 2 mps 672 mmHg 73%
    10:00 +27°C° 0 mm 2 mps 672 mmHg 64%
    11:00 +28°C° 0.1 mm 2 mps 672 mmHg 61%
    12:00 +29°C° 0.1 mm 2 mps 671 mmHg 58%
    13:00 +29°C° 0.1 mm 3 mps 671 mmHg 54%
    14:00 +29°C° 0.1 mm 2 mps 670 mmHg 56%
    15:00 +29°C° 0.1 mm 2 mps 670 mmHg 57%
    16:00 +29°C° 0.1 mm 2 mps 670 mmHg 59%
    17:00 +27°C° 0 mm 2 mps 670 mmHg 65%
    18:00 +25°C° 0 mm 1 mps 670 mmHg 70%
    19:00 +24°C° 0 mm 1 mps 670 mmHg 76%
    20:00 +23°C° 0 mm 1 mps 670 mmHg 78%
    21:00 +22°C° 0 mm 1 mps 670 mmHg 81%
    22:00 +22°C° 0 mm 1 mps 671 mmHg 83%
    23:00 +21°C° 0 mm 1 mps 670 mmHg 84%

    22 November, Thursday

    Time Temperature Precipitation Wind Pressure Humidity
    00:00 +21°C° 0 mm 1 mps 670 mmHg 85%
    01:00 +21°C° 0 mm 1 mps 669 mmHg 86%
    02:00 +20°C° 0.1 mm 1 mps 669 mmHg 87%
    03:00 +20°C° 0.1 mm 1 mps 669 mmHg 88%
    04:00 +20°C° 0.1 mm 1 mps 669 mmHg 89%
    05:00 +21°C° 0.1 mm 1 mps 670 mmHg 85%
    06:00 +22°C° 0.1 mm 1 mps 671 mmHg 82%
    07:00 +23°C° 0.1 mm 1 mps 671 mmHg 78%
    08:00 +26°C° 0 mm 1 mps 672 mmHg 66%
    09:00 +29°C° 0 mm 1 mps 672 mmHg 55%
    10:00 +31°C° 0 mm 2 mps 672 mmHg 43%
    11:00 +31°C° 0 mm 2 mps 671 mmHg 43%
    12:00 +31°C° 0 mm 1 mps 671 mmHg 42%
    13:00 +31°C° 0 mm 1 mps 670 mmHg 42%
    14:00 +31°C° 0 mm 1 mps 669 mmHg 46%
    15:00 +30°C° 0 mm 1 mps 669 mmHg 50%
    16:00 +27°C° 0 mm 0 mps 669 mmHg 55%
    17:00 +28°C° 0.3 mm 1 mps 669 mmHg 61%
    18:00 +26°C° 0.3 mm 2 mps 669 mmHg 67%
    19:00 +24°C° 0.3 mm 2 mps 670 mmHg 73%
    20:00 +23°C° 0.1 mm 2 mps 670 mmHg 79%
    21:00 +22°C° 0.1 mm 1 mps 670 mmHg 85%
    22:00 +21°C° 0.1 mm 1 mps 670 mmHg 91%
    23:00 +21°C° 0.6 mm 1 mps 670 mmHg 92%

    23 November, Friday

    Time Temperature Precipitation Wind Pressure Humidity
    00:00 +21°C° 0.6 mm 1 mps 669 mmHg 94%
    01:00 +20°C° 0.6 mm 1 mps 669 mmHg 95%
    02:00 +20°C° 0.3 mm 1 mps 669 mmHg 96%
    03:00 +20°C° 0.3 mm 1 mps 669 mmHg 96%
    04:00 +20°C° 0.3 mm 1 mps 669 mmHg 97%
    05:00 +21°C° 0.1 mm 1 mps 670 mmHg 94%
    06:00 +22°C° 0.1 mm 1 mps 671 mmHg 92%
    07:00 +22°C° 0.1 mm 1 mps 671 mmHg 90%
    08:00 +24°C° 1.1 mm 1 mps 672 mmHg 86%
    09:00 +25°C° 1.1 mm 1 mps 672 mmHg 81%
    10:00 +26°C° 1.1 mm 2 mps 672 mmHg 77%
    11:00 +27°C° 0.8 mm 2 mps 671 mmHg 72%
    12:00 +28°C° 0.8 mm 2 mps 670 mmHg 67%
    13:00 +29°C° 0.8 mm 2 mps 670 mmHg 61%
    14:00 +29°C° 0.5 mm 2 mps 670 mmHg 62%
    15:00 +29°C° 0.5 mm 2 mps 669 mmHg 63%
    16:00 +28°C° 0.5 mm 1 mps 669 mmHg 63%
    17:00 +26°C° 1 mm 1 mps 670 mmHg 72%
    18:00 +24°C° 1 mm 1 mps 670 mmHg 81%
    19:00 +22°C° 1 mm 1 mps 670 mmHg 90%
    20:00 +22°C° 0.1 mm 1 mps 670 mmHg 90%
    21:00 +20°C° 0.1 mm 0 mps 670 mmHg 91%
    22:00 +20°C° 0.1 mm 0 mps 670 mmHg 91%
    23:00 +19°C° 0 mm 0 mps 670 mmHg 92%

    24 November, Saturday

    Time Temperature Precipitation Wind Pressure Humidity
    00:00 +19°C° 0 mm 0 mps 669 mmHg 92%
    01:00 +19°C° 0 mm 0 mps 669 mmHg 93%
    02:00 +18°C° 0 mm 0 mps 669 mmHg 93%
    03:00 +20°C° 0 mm 1 mps 669 mmHg 93%
    04:00 +20°C° 0 mm 1 mps 669 mmHg 94%
    05:00 +21°C° 0 mm 1 mps 670 mmHg 92%
    06:00 +22°C° 0 mm 1 mps 670 mmHg 90%
    07:00 +22°C° 0 mm 1 mps 671 mmHg 88%
    08:00 +24°C° 0.3 mm 1 mps 671 mmHg 83%
    09:00 +25°C° 0.3 mm 1 mps 671 mmHg 78%
    10:00 +26°C° 0.3 mm 2 mps 671 mmHg 73%
    11:00 +27°C° 0.8 mm 2 mps 671 mmHg 71%
    12:00 +27°C° 0.8 mm 2 mps 670 mmHg 70%
    13:00 +27°C° 0.8 mm 2 mps 669 mmHg 69%
    14:00 +27°C° 0.8 mm 2 mps 669 mmHg 74%
    15:00 +26°C° 0.8 mm 1 mps 669 mmHg 79%
    16:00 +25°C° 0.8 mm 1 mps 668 mmHg 84%
    17:00 +24°C° 0.3 mm 1 mps 669 mmHg 88%
    18:00 +23°C° 0.3 mm 1 mps 669 mmHg 91%
    19:00 +21°C° 0.3 mm 2 mps 670 mmHg 95%
    20:00 +22°C° 0 mm 1 mps 670 mmHg 95%
    21:00 +21°C° 0 mm 1 mps 670 mmHg 96%
    22:00 +21°C° 0 mm 1 mps 670 mmHg 97%
    23:00 +21°C° 0.1 mm 1 mps 670 mmHg 97%
    Show more